FW5426 Weather Reports


Display with metric or nautical units.
time (UTC)temp
F
wind
direction
speed
MPH
gust
MPH
rain 1hr
in
rain 24hr
in
rain mn
in
humidity
%
barometer
mb
20260503210201 76 319 5.0 11.0 0.00 0.00 0.00 31 1018.4
20260503205702 76 173 5.0 11.0 0.00 0.00 0.00 31 1018.7
20260503205202 76 185 5.0 11.0 0.00 0.00 0.00 31 1018.9
20260503204703 76 150 5.0 9.0 0.00 0.00 0.00 30 1018.9
20260503204202 77 47 4.0 9.0 0.00 0.00 0.00 30 1019.0
20260503203658 77 149 3.0 9.0 0.00 0.00 0.00 30 1019.2
20260503203151 77 185 4.0 9.0 0.00 0.00 0.00 30 1019.2
20260503202646 77 219 3.0 7.0 0.00 0.00 0.00 30 1019.1
20260503202140 76 129 3.0 7.0 0.00 0.00 0.00 31 1019.2
20260503201634 76 45 2.0 5.0 0.00 0.00 0.00 31 1019.5
20260503201135 76 324 4.0 9.0 0.00 0.00 0.00 31 1019.6
20260503201124 76 171 5.0 9.0 0.00 0.00 0.00 31 1019.7
20260503200133 76 228 5.0 9.0 0.00 0.00 0.00 32 1019.5
20260503195632 76 219 4.0 9.0 0.00 0.00 0.00 31 1019.7
20260503195133 75 65 2.0 9.0 0.00 0.00 0.00 32 1019.9
20260503194632 75 94 3.0 8.0 0.00 0.00 0.00 32 1020.0
20260503194133 75 258 4.0 8.0 0.00 0.00 0.00 32 1020.2
20260503193630 74 211 2.0 6.0 0.00 0.00 0.00 34 1020.4
20260503193132 74 290 1.0 8.0 0.00 0.00 0.00 33 1020.4
20260503192630 74 181 3.0 8.0 0.00 0.00 0.00 33 1020.5
20260503192131 74 97 3.0 8.0 0.00 0.00 0.00 33 1020.5
20260503191631 74 239 2.0 6.0 0.00 0.00 0.00 33 1020.7
20260503191131 73 178 2.0 6.0 0.00 0.00 0.00 34 1020.7
20260503190630 73 162 3.0 10.0 0.00 0.00 0.00 34 1020.7
20260503190130 72 196 4.0 10.0 0.00 0.00 0.00 35 1020.9
20260503185629 72 91 3.0 7.0 0.00 0.00 0.00 36 1020.9
20260503185128 71 0 3.0 7.0 0.00 0.00 0.00 36 1020.7
20260503184625 71 109 2.0 6.0 0.00 0.00 0.00 36 1020.9
20260503184120 71 238 2.0 6.0 0.00 0.00 0.00 37 1020.9
20260503183614 71 109 3.0 7.0 0.00 0.00 0.00 37 1021.3
20260503183108 71 107 3.0 7.0 0.00 0.00 0.00 37 1021.5
20260503182601 71 115 4.0 7.0 0.00 0.00 0.00 37 1021.5
20260503182102 71 117 4.0 8.0 0.00 0.00 0.00 37 1021.6
20260503181602 71 107 3.0 8.0 0.00 0.00 0.00 38 1021.6
20260503181330 70 36 3.0 8.0 0.00 0.00 0.00 38 1021.6
20260503180602 70 171 2.0 7.0 0.00 0.00 0.00 39 1021.6
20260503175602 69 26 3.0 10.0 0.00 0.00 0.00 41 1021.7
20260503175102 68 11 3.0 10.0 0.00 0.00 0.00 41 1021.9
20260503174602 68 153 2.0 6.0 0.00 0.00 0.00 42 1022.2
20260503174101 68 23 2.0 7.0 0.00 0.00 0.00 41 1022.2
20260503173603 68 114 2.0 7.0 0.00 0.00 0.00 41 1022.2
20260503173102 67 75 2.0 7.0 0.00 0.00 0.00 42 1022.3
20260503172601 67 350 2.0 6.0 0.00 0.00 0.00 42 1022.2
20260503172554 67 209 3.0 6.0 0.00 0.00 0.00 42 1022.2
20260503171602 68 75 2.0 6.0 0.00 0.00 0.00 42 1022.2
20260503171102 67 167 2.0 7.0 0.00 0.00 0.00 42 1022.3
20260503170602 67 229 3.0 10.0 0.00 0.00 0.00 43 1022.4
20260503150300 62 113 1.0 4.0 0.00 0.00 0.00 48 1022.9
20260503131254 53 329 0.0 0.0 0.00 0.01 0.00 69 1022.5
20260503130536 53 329 0.0 0.0 0.00 0.01 0.00 70 1022.3
20260503110729 53 24 0.0 0.0 0.00 0.01 0.00 68 1022.2
20260503090454 55 24 0.0 0.0 0.00 0.01 0.00 60 1022.5
20260503081442 56 51 0.0 0.0 0.00 0.01 0.00 59 1022.8
20260503080941 56 51 0.0 0.0 0.00 0.01 0.00 59 1022.9
20260503080438 56 276 0.0 0.0 0.00 0.01 0.00 59 1022.9
20260503072930 57 142 0.0 1.0 0.00 0.01 0.00 59 1023.3
20260503072430 57 146 0.0 1.0 0.00 0.01 0.00 58 1023.3
20260503071929 57 146 0.0 0.0 0.00 0.01 0.00 58 1023.3
20260503071429 57 146 0.0 0.0 0.00 0.01 0.00 58 1023.4
20260503070929 57 146 0.0 0.0 0.00 0.01 0.00 57 1023.4
20260503070429 58 146 0.0 0.0 0.00 0.01 0.00 57 1023.3
20260503054931 59 329 0.0 2.0 0.00 0.01 0.01 53 1022.9
20260503054429 59 329 0.0 2.0 0.00 0.01 0.01 53 1022.8
20260503053924 59 226 0.0 1.0 0.00 0.01 0.01 53 1022.9
20260503053417 59 213 0.0 0.0 0.00 0.01 0.01 52 1022.9
20260503053359 59 155 0.0 3.0 0.00 0.01 0.01 52 1022.8
20260503052405 60 155 0.0 3.0 0.00 0.01 0.01 52 1022.9
20260503051906 60 165 1.0 3.0 0.00 0.01 0.01 52 1022.9
20260503051403 59 211 1.0 3.0 0.00 0.01 0.01 52 1022.8
20260503050903 60 281 1.0 2.0 0.00 0.01 0.01 52 1022.8
20260503050402 60 281 1.0 3.0 0.00 0.01 0.01 52 1022.7
20260503050120 60 205 0.0 3.0 0.00 0.01 0.01 52 1022.7
20260503045402 60 75 0.0 3.0 0.00 0.01 0.01 51 1022.6
20260503044902 60 75 0.0 2.0 0.00 0.01 0.01 51 1022.6
20260503044401 60 75 0.0 3.0 0.00 0.01 0.01 50 1022.5
20260503043901 61 75 1.0 3.0 0.00 0.01 0.01 50 1022.6
20260503043402 61 53 1.0 3.0 0.00 0.01 0.01 49 1022.4
20260503042902 61 32 0.0 3.0 0.00 0.01 0.01 49 1022.4
20260503042402 61 109 0.0 3.0 0.00 0.01 0.01 49 1022.4
20260503041901 62 184 0.0 3.0 0.00 0.01 0.01 48 1022.5
20260503041401 62 36 0.0 2.0 0.00 0.01 0.01 47 1022.5
20260503040901 62 36 1.0 5.0 0.00 0.01 0.01 47 1022.4
20260503040401 62 348 2.0 5.0 0.00 0.01 0.01 46 1022.5
20260503040123 62 53 1.0 5.0 0.00 0.01 0.01 46 1022.5
20260503035401 62 336 1.0 5.0 0.00 0.01 0.01 46 1022.5
20260503035126 62 58 2.0 4.0 0.00 0.01 0.01 46 1022.5
20260503034619 63 58 2.0 4.0 0.00 0.01 0.01 46 1022.4
20260503033901 63 84 2.0 6.0 0.00 0.01 0.01 45 1022.4
20260503033401 63 82 1.0 6.0 0.00 0.01 0.01 45 1022.4
20260503033126 63 78 1.0 5.0 0.00 0.01 0.01 45 1022.4
20260503032401 64 65 2.0 5.0 0.00 0.01 0.01 44 1022.3
20260503031902 64 69 2.0 5.0 0.00 0.01 0.01 44 1022.4
20260503031623 64 58 2.0 5.0 0.00 0.01 0.01 44 1022.3
20260503030902 64 65 2.0 5.0 0.00 0.01 0.01 43 1022.2
20260503030402 64 70 3.0 6.0 0.00 0.01 0.01 43 1022.0
20260503025901 64 56 3.0 7.0 0.00 0.01 0.01 42 1021.9
20260503025401 64 74 3.0 7.0 0.00 0.01 0.01 42 1021.8
20260503024900 64 69 3.0 7.0 0.00 0.01 0.01 42 1021.8
20260503024401 65 75 3.0 5.0 0.00 0.01 0.01 42 1021.7
20260503023901 65 70 3.0 7.0 0.00 0.01 0.01 42 1021.6
20260503023615 65 71 3.0 7.0 0.00 0.01 0.01 41 1021.4
20260503022848 65 63 2.0 4.0 0.00 0.01 0.01 41 1021.4
20260503022343 65 46 2.0 4.0 0.00 0.01 0.01 41 1021.4
20260503021843 66 49 2.0 4.0 0.00 0.01 0.01 40 1021.3
20260503021343 66 46 2.0 4.0 0.00 0.01 0.01 40 1021.1
20260503020843 66 38 3.0 5.0 0.00 0.01 0.01 40 1021.0
20260503020341 66 53 3.0 5.0 0.00 0.01 0.01 39 1021.0
20260503015841 66 48 3.0 5.0 0.00 0.01 0.01 39 1021.0
20260503015341 66 55 3.0 6.0 0.00 0.01 0.01 39 1020.9
20260503014839 66 39 2.0 6.0 0.00 0.01 0.01 39 1021.0
20260503014337 67 39 3.0 6.0 0.00 0.01 0.01 38 1020.8
20260503013837 67 45 3.0 6.0 0.00 0.01 0.01 38 1020.7
20260503013558 67 55 3.0 6.0 0.00 0.01 0.01 37 1020.6
20260503013102 67 40 3.0 5.0 0.00 0.01 0.01 37 1020.6
20260503012337 67 69 3.0 7.0 0.00 0.01 0.01 37 1020.5
20260503011835 67 81 2.0 7.0 0.00 0.01 0.01 37 1020.5
20260503011334 68 91 2.0 6.0 0.00 0.01 0.01 37 1020.6
20260503010830 68 76 3.0 7.0 0.00 0.01 0.01 37 1020.6
20260503010552 68 80 3.0 7.0 0.00 0.01 0.01 36 1020.6
20260503010313 68 65 3.0 6.0 0.00 0.01 0.01 37 1020.6
20260503005329 68 65 4.0 7.0 0.00 0.01 0.01 37 1020.5
20260503004829 68 5 4.0 9.0 0.00 0.01 0.01 36 1020.5
20260503004329 68 40 4.0 9.0 0.00 0.01 0.01 36 1020.6
20260503004313 68 59 3.0 7.0 0.00 0.01 0.01 36 1020.6
20260503003329 69 13 2.0 6.0 0.00 0.01 0.01 36 1020.6
20260503003057 69 61 2.0 6.0 0.00 0.01 0.01 36 1020.6
20260503002331 69 124 3.0 7.0 0.00 0.01 0.01 36 1020.5
20260503001829 69 105 3.0 9.0 0.00 0.01 0.01 36 1020.5
20260503001329 69 68 2.0 9.0 0.00 0.01 0.01 36 1020.5
20260503000830 69 215 2.0 7.0 0.00 0.01 0.01 36 1020.4
20260503000331 69 113 4.0 10.0 0.00 0.01 0.01 36 1020.5
20260502235829 69 117 5.0 10.0 0.00 0.01 0.01 36 1020.5
20260502235332 69 109 3.0 8.0 0.00 0.01 0.01 35 1020.5
20260502234829 69 66 2.0 5.0 0.00 0.01 0.01 36 1020.5
20260502234329 69 24 2.0 6.0 0.00 0.01 0.01 35 1020.6
20260502234053 70 67 3.0 9.0 0.00 0.01 0.01 34 1020.6
20260502233329 70 109 2.0 9.0 0.00 0.01 0.01 35 1020.6
20260502232829 70 42 2.0 4.0 0.00 0.01 0.01 34 1020.6
20260502232329 70 335 2.0 4.0 0.00 0.01 0.01 34 1020.6
20260502231829 70 240 1.0 3.0 0.00 0.01 0.01 35 1020.6
20260502231331 69 275 2.0 7.0 0.00 0.01 0.01 35 1020.7
20260502230829 69 131 2.0 7.0 0.00 0.01 0.01 35 1020.8
20260502230329 69 98 3.0 10.0 0.00 0.01 0.01 36 1020.8
20260502225828 69 118 4.0 10.0 0.00 0.01 0.01 35 1020.8
20260502225329 69 114 4.0 9.0 0.00 0.01 0.01 36 1020.8
20260502224829 69 137 3.0 9.0 0.00 0.01 0.01 36 1020.9
20260502224329 69 80 3.0 9.0 0.00 0.01 0.01 35 1020.9
20260502223826 69 71 3.0 7.0 0.00 0.01 0.01 36 1021.0
20260502223327 69 134 2.0 6.0 0.00 0.01 0.01 35 1021.0
20260502222827 69 235 2.0 7.0 0.00 0.01 0.01 36 1021.3
20260502222327 68 74 3.0 8.0 0.00 0.01 0.01 37 1021.3
20260502221827 67 80 4.0 8.0 0.00 0.01 0.01 37 1021.1
20260502221545 68 82 3.0 8.0 0.00 0.01 0.01 37 1021.3
20260502220827 68 55 2.0 6.0 0.00 0.01 0.01 37 1021.4
20260502220328 68 325 3.0 8.0 0.00 0.01 0.01 36 1021.6
20260502220045 68 68 5.0 10.0 0.00 0.01 0.01 37 1021.7
20260502215327 68 120 4.0 10.0 0.00 0.01 0.01 37 1021.9
20260502214826 68 22 4.0 12.0 0.00 0.01 0.01 38 1021.8
20260502214326 68 345 4.0 12.0 0.00 0.01 0.01 38 1022.0
20260502213827 67 115 3.0 9.0 0.00 0.01 0.01 37 1022.0
20260502213326 67 138 2.0 9.0 0.00 0.01 0.01 38 1022.0
20260502213053 67 78 3.0 9.0 0.00 0.01 0.01 38 1022.0
20260502212327 67 355 3.0 9.0 0.00 0.01 0.01 38 1022.2
20260502211827 68 59 2.0 9.0 0.00 0.01 0.01 38 1022.3
20260502211326 68 39 3.0 9.0 0.00 0.01 0.01 38 1022.4
20260502210820 67 245 6.0 12.0 0.00 0.01 0.01 39 1022.4